DLH6NJ EDDM-EPKK

Flight info

Callsign DLH6NJ
Flight time N/A
Altitude 33000
Route BIBAG2E/08R BIBAG Y133 BEPAS DCT NELPA DCT PADKA
Aircraft A320/M-SDE2E3FGIJ1LORWXYZ/HB1

Departure

Time N/A
Airport Munich Airport (EDDM)

Arrival

Time 2026-05-01 14:03
Airport Kraków John Paul II International Airport (EPKK)
Time Latitude Longitude Altitude Speed Heading
2026-05-01 13:01 48.24418 12.33654 17579 ft 303 kts 84°
2026-05-01 13:01 48.26251 12.40810 18199 ft 338 kts 58°
2026-05-01 13:02 48.27480 12.43852 18749 ft 343 kts 59°
2026-05-01 13:07 48.51773 13.16679 28902 ft 396 kts 37°
2026-05-01 13:07 48.54081 13.18952 29273 ft 398 kts 30°
2026-05-01 13:07 48.56479 13.21064 29636 ft 400 kts 30°
2026-05-01 13:08 48.58887 13.23198 29989 ft 402 kts 30°
2026-05-01 13:08 48.61304 13.25348 30337 ft 405 kts 30°
2026-05-01 13:08 48.63735 13.27520 30635 ft 407 kts 31°
2026-05-01 13:08 48.66174 13.29703 30917 ft 409 kts 31°
2026-05-01 13:09 48.68626 13.31899 31203 ft 410 kts 31°
2026-05-01 13:09 48.71085 13.34106 31466 ft 412 kts 31°
2026-05-01 13:09 48.73554 13.36324 31727 ft 414 kts 31°
2026-05-01 13:09 48.76036 13.38553 32013 ft 414 kts 31°
2026-05-01 13:10 48.78512 13.40776 32380 ft 413 kts 31°
2026-05-01 13:10 48.80985 13.42994 32743 ft 412 kts 31°
2026-05-01 13:10 48.83452 13.45210 33091 ft 412 kts 31°
2026-05-01 13:10 48.85875 13.47419 33338 ft 412 kts 34°
2026-05-01 13:11 48.88133 13.50088 33379 ft 399 kts 43°
2026-05-01 13:11 48.91376 13.56662 33384 ft 392 kts 63°
2026-05-01 13:12 48.93483 13.64308 33381 ft 392 kts 65°
2026-05-01 13:12 48.95561 13.72000 33382 ft 394 kts 65°
2026-05-01 13:13 48.97632 13.79678 33383 ft 390 kts 65°
2026-05-01 13:13 48.99692 13.87315 33388 ft 390 kts 65°
2026-05-01 13:14 49.01746 13.94954 33380 ft 389 kts 65°
2026-05-01 13:14 49.03790 14.02594 33388 ft 389 kts 65°
2026-05-01 13:15 49.05829 14.10237 33384 ft 389 kts 65°
2026-05-01 13:15 49.07862 14.17889 33381 ft 389 kts 65°
2026-05-01 13:16 49.09893 14.25547 33382 ft 389 kts 65°
2026-05-01 13:16 49.11910 14.33195 33408 ft 388 kts 65°
2026-05-01 13:17 49.15926 14.48446 33393 ft 386 kts 65°
2026-05-01 13:18 49.18897 14.59872 33381 ft 386 kts 65°
2026-05-01 13:18 49.20881 14.67494 33377 ft 386 kts 65°
2026-05-01 13:19 49.22866 14.75115 33373 ft 386 kts 65°
2026-05-01 13:20 49.25806 14.86507 33390 ft 385 kts 65°
2026-05-01 13:20 49.27762 14.94139 33381 ft 385 kts 65°
2026-05-01 13:21 49.30396 15.05779 33374 ft 386 kts 69°
2026-05-01 13:21 49.31995 15.13632 33368 ft 386 kts 69°
2026-05-01 13:22 49.33613 15.21478 33366 ft 386 kts 69°
2026-05-01 13:22 49.34982 15.27981 33366 ft 386 kts 68°
2026-05-01 13:23 49.36634 15.35812 33383 ft 385 kts 68°
2026-05-01 13:23 49.38268 15.43630 33381 ft 385 kts 68°
2026-05-01 13:24 49.39890 15.51452 33380 ft 384 kts 68°
2026-05-01 13:25 49.42317 15.63170 33367 ft 384 kts 68°
2026-05-01 13:25 49.43929 15.70985 33368 ft 384 kts 69°
2026-05-01 13:26 49.45526 15.78814 33359 ft 384 kts 69°
2026-05-01 13:26 49.47123 15.86644 33389 ft 384 kts 68°
2026-05-01 13:27 49.48718 15.94466 33383 ft 383 kts 69°
2026-05-01 13:27 49.51088 16.06172 33376 ft 382 kts 69°
2026-05-01 13:28 49.53435 16.17874 33356 ft 381 kts 69°
2026-05-01 13:29 49.56556 16.33487 33351 ft 381 kts 69°
2026-05-01 13:31 49.60925 16.55599 33358 ft 381 kts 69°
2026-05-01 13:32 49.64975 16.76286 33349 ft 380 kts 69°
2026-05-01 13:33 49.68769 16.95842 33358 ft 380 kts 69°
2026-05-01 13:34 49.71758 17.11479 33351 ft 379 kts 69°
2026-05-01 13:35 49.73998 17.23193 33337 ft 379 kts 69°
2026-05-01 13:36 49.76211 17.34913 33335 ft 379 kts 69°
2026-05-01 13:36 49.78413 17.46643 33370 ft 378 kts 69°
2026-05-01 13:37 49.79875 17.54444 33374 ft 377 kts 69°
2026-05-01 13:37 49.81324 17.62234 33364 ft 376 kts 69°
2026-05-01 13:38 49.82758 17.69951 33157 ft 372 kts 69°
2026-05-01 13:38 49.83463 17.73778 32891 ft 368 kts 70°
2026-05-01 13:38 49.84172 17.77624 32622 ft 365 kts 69°
2026-05-01 13:39 49.84858 17.81346 32359 ft 363 kts 69°
2026-05-01 13:39 49.85548 17.85096 32099 ft 361 kts 70°
2026-05-01 13:39 49.86232 17.88824 31843 ft 359 kts 70°
2026-05-01 13:39 49.86913 17.92542 31588 ft 357 kts 70°
2026-05-01 13:40 49.87589 17.96237 31342 ft 355 kts 70°
2026-05-01 13:40 49.88260 17.99912 31091 ft 354 kts 70°
2026-05-01 13:40 49.88927 18.03574 30839 ft 352 kts 70°
2026-05-01 13:40 49.89590 18.07216 30600 ft 350 kts 70°
2026-05-01 13:41 49.90247 18.10834 30348 ft 348 kts 70°
2026-05-01 13:41 49.90903 18.14443 30054 ft 347 kts 70°
2026-05-01 13:41 49.91550 18.18036 29767 ft 345 kts 70°
2026-05-01 13:41 49.92189 18.21614 29484 ft 343 kts 70°
2026-05-01 13:42 49.92820 18.25168 29209 ft 341 kts 71°
2026-05-01 13:42 49.93248 18.28802 28930 ft 344 kts 80°
2026-05-01 13:42 49.93392 18.32509 28656 ft 344 kts 81°
2026-05-01 13:42 49.93536 18.36203 28384 ft 342 kts 81°
2026-05-01 13:43 49.93685 18.39877 28110 ft 340 kts 81°
2026-05-01 13:43 49.93836 18.43534 27846 ft 339 kts 81°
2026-05-01 13:43 49.93986 18.47176 27585 ft 337 kts 81°
2026-05-01 13:43 49.94130 18.50797 27357 ft 335 kts 81°
2026-05-01 13:44 49.94271 18.54389 27097 ft 333 kts 81°
2026-05-01 13:44 49.94407 18.57963 26842 ft 331 kts 81°
2026-05-01 13:44 49.94539 18.61525 26584 ft 330 kts 81°
2026-05-01 13:44 49.94671 18.65065 26332 ft 328 kts 81°
2026-05-01 13:45 49.94804 18.68596 26078 ft 327 kts 81°
2026-05-01 13:45 49.94936 18.72108 25827 ft 325 kts 81°
2026-05-01 13:45 49.95063 18.75604 25587 ft 322 kts 81°
2026-05-01 13:45 49.95186 18.79040 25254 ft 316 kts 81°
2026-05-01 13:46 49.95308 18.82430 24860 ft 313 kts 81°
2026-05-01 13:46 49.95430 18.85788 24462 ft 310 kts 81°
2026-05-01 13:46 49.95551 18.89119 24065 ft 308 kts 81°
2026-05-01 13:46 49.95669 18.92427 23627 ft 306 kts 81°
2026-05-01 13:47 49.95785 18.95711 23216 ft 303 kts 81°
2026-05-01 13:47 49.95896 18.98956 22860 ft 299 kts 81°
2026-05-01 13:47 49.96005 19.02164 22455 ft 296 kts 81°
2026-05-01 13:47 49.96111 19.05357 21903 ft 298 kts 81°
2026-05-01 13:48 49.96221 19.08590 21399 ft 301 kts 81°
2026-05-01 13:48 49.96330 19.11842 20921 ft 302 kts 81°
2026-05-01 13:48 49.96437 19.15105 20449 ft 302 kts 81°
2026-05-01 13:48 49.96544 19.18369 19979 ft 303 kts 81°
2026-05-01 13:49 49.96654 19.21645 19485 ft 305 kts 81°
2026-05-01 13:49 49.96765 19.24950 18979 ft 307 kts 81°
2026-05-01 13:49 49.96876 19.28269 18464 ft 309 kts 81°
2026-05-01 13:49 49.96985 19.31612 17893 ft 311 kts 82°
2026-05-01 13:50 49.97090 19.34978 17338 ft 313 kts 82°
2026-05-01 13:50 49.97193 19.38361 16786 ft 314 kts 82°
2026-05-01 13:50 49.97296 19.41759 16246 ft 316 kts 82°
2026-05-01 13:50 49.97399 19.45175 15713 ft 317 kts 82°
2026-05-01 13:51 49.97502 19.48596 15214 ft 318 kts 82°
2026-05-01 13:51 49.97605 19.52029 14701 ft 318 kts 82°
2026-05-01 13:51 49.97706 19.55466 14196 ft 319 kts 82°
2026-05-01 13:51 49.97806 19.58916 13638 ft 320 kts 82°
2026-05-01 13:52 49.97903 19.62360 13084 ft 319 kts 82°
2026-05-01 13:52 49.97995 19.65750 12527 ft 307 kts 82°
2026-05-01 13:52 49.98081 19.69000 11969 ft 295 kts 82°
2026-05-01 13:52 49.98168 19.72129 11439 ft 285 kts 82°
2026-05-01 13:53 49.98370 19.75118 10917 ft 272 kts 73°
2026-05-01 13:53 49.99168 19.80850 9864 ft 273 kts 73°
2026-05-01 13:53 49.99555 19.83704 9271 ft 268 kts 74°
2026-05-01 13:54 49.99937 19.86534 8639 ft 268 kts 74°
2026-05-01 13:54 50.00319 19.89367 8026 ft 268 kts 75°
2026-05-01 13:54 50.00700 19.92199 7431 ft 266 kts 75°
2026-05-01 13:54 50.01072 19.94972 6953 ft 259 kts 75°
2026-05-01 13:55 50.01444 19.97724 6502 ft 261 kts 75°
2026-05-01 13:55 50.01820 20.00490 6040 ft 262 kts 75°
2026-05-01 13:55 50.02199 20.03274 5586 ft 264 kts 75°
2026-05-01 13:55 50.02574 20.06046 5312 ft 257 kts 75°
2026-05-01 13:56 50.02932 20.08707 5183 ft 245 kts 75°
2026-05-01 13:56 50.03272 20.11250 5073 ft 237 kts 75°
2026-05-01 13:56 50.03610 20.13739 4999 ft 233 kts 73°
2026-05-01 13:56 50.04251 20.15931 4865 ft 216 kts 48°
2026-05-01 13:57 50.05359 20.17409 4737 ft 208 kts 25°
2026-05-01 13:57 50.06253 20.17919 4652 ft 207 kts
2026-05-01 13:57 50.08129 20.17693 4478 ft 205 kts 339°
2026-05-01 13:57 50.09327 20.16489 4350 ft 208 kts 316°
2026-05-01 13:58 50.10135 20.14610 4220 ft 211 kts 301°
2026-05-01 13:58 50.10814 20.12591 4109 ft 210 kts 300°
2026-05-01 13:58 50.11488 20.10568 4019 ft 211 kts 297°
2026-05-01 13:58 50.11801 20.08321 4017 ft 217 kts 272°
2026-05-01 13:59 50.11563 20.05969 3999 ft 222 kts 261°
2026-05-01 13:59 50.11237 20.03625 3826 ft 220 kts 261°
2026-05-01 13:59 50.10917 20.01309 3559 ft 218 kts 261°
2026-05-01 13:59 50.10602 19.99003 3253 ft 218 kts 261°
2026-05-01 14:00 50.10289 19.96724 2978 ft 214 kts 260°
2026-05-01 14:00 50.09978 19.94459 2682 ft 213 kts 262°
2026-05-01 14:00 50.09678 19.92282 2398 ft 196 kts 262°
2026-05-01 14:00 50.09405 19.90303 2139 ft 178 kts 261°
2026-05-01 14:01 50.09160 19.88532 1928 ft 158 kts 262°
2026-05-01 14:01 50.08938 19.86913 1701 ft 148 kts 259°
2026-05-01 14:01 50.08727 19.85383 1517 ft 144 kts 259°
2026-05-01 14:01 50.08520 19.83876 1286 ft 142 kts 261°
2026-05-01 14:02 50.08316 19.82379 1129 ft 143 kts 261°
2026-05-01 14:02 50.08108 19.80878 956 ft 141 kts 259°
2026-05-01 14:02 50.07896 19.79403 802 ft 133 kts 261°
2026-05-01 14:02 50.07777 19.78488 801 ft 64 kts 259°
2026-05-01 14:03 50.07714 19.78128 799 ft 9 kts 244°
2026-05-01 14:03 50.07660 19.78097 799 ft 7 kts 180°
2026-05-01 14:03 50.07614 19.78093 800 ft 6 kts 183°
2026-05-01 14:03 50.07576 19.78090 800 ft 5 kts 183°
2026-05-01 14:04 50.07534 19.78086 800 ft 11 kts 183°
2026-05-01 14:04 50.07477 19.78141 800 ft 10 kts 105°
2026-05-01 14:04 50.07484 19.78234 800 ft 8 kts 77°
2026-05-01 14:04 50.07493 19.78291 800 ft 8 kts 77°
2026-05-01 14:05 50.07507 19.78399 800 ft 7 kts 78°
2026-05-01 14:05 50.07517 19.78471 800 ft 6 kts 78°
2026-05-01 14:05 50.07526 19.78536 800 ft 6 kts 77°
2026-05-01 14:05 50.07535 19.78595 800 ft 6 kts 77°
2026-05-01 14:06 50.07546 19.78675 800 ft 9 kts 78°
2026-05-01 14:06 50.07561 19.78787 800 ft 11 kts 77°
2026-05-01 14:06 50.07578 19.78902 800 ft 11 kts 77°
2026-05-01 14:06 50.07594 19.79013 800 ft 11 kts 77°
2026-05-01 14:07 50.07612 19.79155 800 ft 16 kts 79°
2026-05-01 14:07 50.07636 19.79327 800 ft 17 kts 77°
2026-05-01 14:07 50.07663 19.79517 800 ft 19 kts 78°
2026-05-01 14:08 50.07697 19.79847 800 ft 15 kts 111°
2026-05-01 14:08 50.07611 19.79898 800 ft 13 kts 168°
2026-05-01 14:08 50.07524 19.79927 800 ft 13 kts 168°
2026-05-01 14:08 50.07440 19.79955 800 ft 12 kts 166°
2026-05-01 14:09 50.07363 19.79987 800 ft 6 kts 167°
2026-05-01 14:09 50.07323 19.80001 800 ft 4 kts 168°
2026-05-01 14:09 50.07307 19.80006 800 ft 0 kts 167°
2026-05-01 14:09 50.07307 19.80007 800 ft 0 kts 167°
2026-05-01 14:10 50.07306 19.80007 800 ft 0 kts 167°
2026-05-01 14:10 50.07305 19.80007 800 ft 0 kts 167°